Location: Cypress Hills Dark-Sky Preserve - CHICO
(49.6176°N, 110.2634°W)
Time: 22:03:22
(UTC-07:00)

Amateur Radio Satellites - All Passes

Search period start: 23 January 2017 21:33
Search period end: 24 January 2017 21:33
Location: Cypress Hills Dark-Sky Preserve - CHICO, 49.6176°N, 110.2634°W

Satellite Date Start Highest point End Downlink Frequencies (MHz)
Time Altitude Azimuth
STRAND 1 23 Jan 21:38:49 21:42:19 19° 304° (NW) 21:45:49 437.568
AISAT 23 Jan 21:41:41 21:41:55 10° 53° (NE) 21:42:10 437.250
BY70-1 23 Jan 21:42:52 21:45:37 27° 67° (ENE) 21:48:30 436.1900
UNISAT 6 23 Jan 21:50:41 21:54:28 26° 94° (E) 21:58:18 437.425
ISS 23 Jan 21:51:55 21:54:58 37° 149° (SSE) 21:58:02 145.825
PRISM 23 Jan 21:52:27 21:56:35 72° 103° (ESE) 22:00:39 437.425
HUMSAT D 23 Jan 21:56:51 22:00:52 50° 261° (W) 22:04:58 437.325/437.525
FUNcube-1 23 Jan 21:58:22 21:59:41 11° 274° (W) 22:00:59 145.935
BEESAT 2 23 Jan 22:00:51 22:02:41 13° 19° (NNE) 22:04:31 435.950
TIGRISAT 23 Jan 22:02:39 22:06:40 32° 96° (E) 22:10:43 435.000
JAS-2 23 Jan 22:10:27 22:16:22 26° 89° (E) 22:22:34 435.910
VELOX 1 23 Jan 22:11:44 22:14:42 18° 59° (ENE) 22:17:40 145.980
AO-85 23 Jan 22:12:20 22:16:00 38° 239° (WSW) 22:19:37 145.980
SPROUT 23 Jan 22:12:33 22:14:31 13° 57° (ENE) 22:16:28 437.525
ESTCUBE 1 23 Jan 22:15:40 22:19:57 42° 68° (ENE) 22:24:16 437.505/2401.250
ANTELSAT 23 Jan 22:18:43 22:23:03 47° 99° (E) 22:27:26 437.575/2403.000
DX 1 23 Jan 22:31:35 22:33:59 15° 57° (ENE) 22:36:24 434.975-435.025
RS-15 23 Jan 22:36:22 22:47:10 43° 109° (ESE) 22:58:18 29.354- 29.394
YUBILEINY 23 Jan 22:43:04 22:48:22 17° 47° (NE) 22:53:36 435.215
BEESAT 3 23 Jan 22:44:30 22:48:00 28° 37° (NE) 22:51:30 437.485
CUBEBUG 1 23 Jan 22:46:28 22:50:43 50° 70° (ENE) 22:54:59 437.445
AIST 2 23 Jan 22:54:00 22:55:02 11° 352° (N) 22:56:05 435.215
POPSAT HIP 1 23 Jan 22:58:58 23:01:10 14° 89° (E) 23:03:21 437.405
DUCHIFAT 1 23 Jan 23:04:49 23:06:59 14° 89° (E) 23:09:09 145.980
NANOSAT C BR1 23 Jan 23:11:55 23:14:47 18° 91° (E) 23:17:39 145.865
AISAT 23 Jan 23:13:08 23:17:31 63° 72° (ENE) 23:21:55 437.250
BY70-1 23 Jan 23:13:19 23:15:50 21° 266° (W) 23:18:28 436.1900
AIST 1 23 Jan 23:15:40 23:17:45 13° 62° (ENE) 23:19:50
GONETS M04 23 Jan 23:24:38 23:27:30 12° 321° (NW) 23:30:22
TISAT 1 23 Jan 23:26:53 23:28:34 12° 56° (NE) 23:30:15 437.305
UNISAT 6 23 Jan 23:27:08 23:31:18 40° 292° (WNW) 23:35:31 437.425
Cosmos 2504 23 Jan 23:27:23 23:30:36 13° 47° (NE) 23:33:45 435.465 / 435.565
ISS 23 Jan 23:28:05 23:31:21 70° 349° (N) 23:34:36 145.825
PRISM 23 Jan 23:29:01 23:31:22 15° 302° (WNW) 23:33:42 437.425
50 SAT 23 Jan 23:36:47 23:40:22 78° 74° (ENE) 23:43:59 437.505
BEESAT 2 23 Jan 23:37:45 23:41:33 37° 41° (NE) 23:45:20 435.950
TIGRISAT 23 Jan 23:39:22 23:43:21 33° 293° (WNW) 23:47:24 435.000
SPROUT 23 Jan 23:45:33 23:49:48 89° 242° (WSW) 23:54:05 437.525
Cosmos 2491 23 Jan 23:45:42 23:48:10 11° 66° (ENE) 23:50:37 435.465 / 435.565
VELOX 1 23 Jan 23:46:17 23:50:42 67° 257° (WSW) 23:55:09 145.980
ESTCUBE 1 23 Jan 23:53:08 23:56:54 25° 266° (W) 00:00:43 437.505/2401.250
JAS-2 23 Jan 23:54:47 00:02:00 81° 287° (WNW) 00:09:48 435.910
ANTELSAT 23 Jan 23:55:58 23:59:31 24° 297° (WNW) 00:03:07 437.575/2403.000
UKube-1 23 Jan 23:56:28 00:00:43 62° 72° (ENE) 00:05:01 .
PCSat 23 Jan 23:59:37 00:04:40 41° 115° (ESE) 00:09:44 145.827
DX 1 24 Jan 00:05:13 00:09:36 83° 255° (WSW) 00:13:59 434.975-435.025
QB50P1 24 Jan 00:05:50 00:10:03 63° 102° (ESE) 00:14:15 145.935-145.965
POLYITAN 1 24 Jan 00:11:17 00:15:32 73° 104° (ESE) 00:19:46 437.675
QB50P2 24 Jan 00:12:41 00:16:57 80° 104° (ESE) 00:21:12 145.880/145.840
BEESAT 3 24 Jan 00:21:56 00:25:49 48° 237° (WSW) 00:29:40 437.485
BEESAT 24 Jan 00:23:24 00:25:32 13° 53° (NE) 00:27:40 436.000
CUBEBUG 1 24 Jan 00:24:00 00:27:17 20° 268° (W) 00:30:34 437.445
SWISSCUBE 24 Jan 00:24:55 00:27:30 15° 55° (NE) 00:30:06 437.505
POPSAT HIP 1 24 Jan 00:33:13 00:37:26 71° 287° (WNW) 00:41:39 437.405
AIST 2 24 Jan 00:33:22 00:35:21 13° 17° (NNE) 00:37:20 435.215
Oscar 19 24 Jan 00:35:21 00:38:16 15° 87° (E) 00:41:10 437.125/150
YUBILEINY 24 Jan 00:38:43 00:47:28 60° 74° (ENE) 00:56:06 435.215
DUCHIFAT 1 24 Jan 00:38:57 00:43:09 71° 287° (WNW) 00:47:20 145.980
NANOSAT C BR1 24 Jan 00:46:43 00:50:50 54° 289° (WNW) 00:54:57 145.865
RS-15 24 Jan 00:46:52 00:58:57 75° 315° (NW) 01:11:26 29.354- 29.394
AISAT 24 Jan 00:51:33 00:54:24 17° 270° (W) 00:57:16 437.250
AIST 1 24 Jan 00:51:41 00:55:58 78° 263° (W) 01:00:12
BUGSAT 1 24 Jan 00:57:14 01:01:17 70° 104° (ESE) 01:05:20 437.445
TISAT 1 24 Jan 00:59:22 01:03:33 87° 76° (ENE) 01:07:45 437.305
ISS 24 Jan 01:04:47 01:08:02 63° 8° (N) 01:11:16 145.825
CUSAT 1 24 Jan 01:06:05 01:07:12 10° 69° (ENE) 01:08:20 437.405
BEESAT 2 24 Jan 01:15:39 01:19:18 33° 241° (WSW) 01:22:56 435.950
Cosmos 2504 24 Jan 01:18:48 01:26:06 55° 73° (ENE) 01:33:06 435.465 / 435.565
MOZHAYETS 4 24 Jan 01:20:36 01:22:47 13° 55° (NE) 01:24:58
Gurwin Techsat 1B 24 Jan 01:20:36 01:24:37 21° 90° (E) 01:28:37 435.225
SPROUT 24 Jan 01:25:29 01:26:23 11° 274° (W) 01:27:17 437.525
ITUPSAT 1 24 Jan 01:26:15 01:30:41 39° 66° (ENE) 01:35:08 437.325
UKube-1 24 Jan 01:34:26 01:37:10 16° 270° (W) 01:39:56 .
Cosmos 2491 24 Jan 01:34:29 01:42:49 54° 90° (E) 01:51:13 435.465 / 435.565
JAS-2 24 Jan 01:40:55 01:46:10 23° 307° (NW) 01:51:44 435.910
QB50P1 24 Jan 01:42:38 01:45:23 17° 300° (WNW) 01:48:08 145.935-145.965
PCSat 24 Jan 01:42:55 01:48:05 43° 316° (NW) 01:53:16 145.827
DX 1 24 Jan 01:45:58 01:46:30 10° 274° (W) 01:47:01 434.975-435.025
POLYITAN 1 24 Jan 01:48:19 01:50:48 15° 301° (WNW) 01:53:19 437.675
QB50P2 24 Jan 01:49:55 01:52:10 14° 302° (WNW) 01:54:27 145.880/145.840
BEESAT 24 Jan 01:57:46 02:02:31 75° 72° (ENE) 02:07:18 436.000
SWISSCUBE 24 Jan 01:59:49 02:04:35 86° 73° (ENE) 02:09:25 437.505
AIST 2 24 Jan 02:11:06 02:15:02 35° 40° (NE) 02:18:56 435.215
POPSAT HIP 1 24 Jan 02:11:46 02:12:26 10° 306° (NW) 02:13:05 437.405
Oscar 19 24 Jan 02:13:05 02:18:18 87° 287° (WNW) 02:23:28 437.125/150
DUCHIFAT 1 24 Jan 02:17:31 02:18:03 10° 306° (NW) 02:18:35 145.980
M-CUBED/EXP-1 PRIME 24 Jan 02:20:13 02:23:40 26° 60° (ENE) 02:26:55 437.505
BUGSAT 1 24 Jan 02:33:54 02:36:10 15° 301° (WNW) 02:38:26 437.445
DANDE 24 Jan 02:34:17 02:36:34 13° 74° (ENE) 02:39:05 436.750
YUBILEINY 24 Jan 02:36:03 02:43:53 38° 276° (W) 02:51:40 435.215
TISAT 1 24 Jan 02:38:46 02:39:48 11° 273° (W) 02:40:50 437.305
ISS 24 Jan 02:41:20 02:44:29 48° 209° (SSW) 02:47:38 145.825
CUSAT 1 24 Jan 02:41:28 02:47:07 54° 92° (E) 02:54:11 437.405
AUBIESAT-1 24 Jan 02:52:51 02:56:43 42° 64° (ENE) 03:00:19 437.475
MOZHAYETS 4 24 Jan 02:54:37 02:59:13 82° 73° (ENE) 03:03:51
Gurwin Techsat 1B 24 Jan 02:59:45 03:05:02 65° 289° (WNW) 03:10:17 435.225
RS-15 24 Jan 03:02:19 03:13:47 42° 346° (NNW) 03:25:24 29.354- 29.394
ITUPSAT 1 24 Jan 03:04:26 03:08:36 30° 265° (W) 03:12:49 437.325
ITAMSAT 1 24 Jan 03:04:58 03:09:45 35° 96° (E) 03:14:31 435.822/435.867
KKS-1 24 Jan 03:05:02 03:09:10 39° 67° (ENE) 03:13:17 437.445
Cosmos 2504 24 Jan 03:12:43 03:19:07 33° 276° (W) 03:25:18 435.465 / 435.565
PCSat 24 Jan 03:29:37 03:32:56 16° 340° (NNW) 03:36:16 145.827
Cosmos 2491 24 Jan 03:31:47 03:39:56 42° 293° (WNW) 03:48:10 435.465 / 435.565
AO-7 24 Jan 03:36:56 03:44:55 46° 100° (E) 03:52:50 29.400- 29.500
BEESAT 24 Jan 03:37:59 03:40:51 16° 271° (W) 03:43:43 436.000
SWISSCUBE 24 Jan 03:40:39 03:43:03 14° 273° (W) 03:45:26 437.505
STARS 24 Jan 03:46:34 03:50:46 47° 69° (ENE) 03:54:58 437.465
AIST 2 24 Jan 03:49:35 03:53:34 39° 239° (WSW) 03:57:32 435.215
CUBESAT XI-V 24 Jan 03:51:25 03:56:00 53° 70° (ENE) 04:00:38 437.345
Oscar 19 24 Jan 03:53:46 03:56:54 16° 306° (NW) 04:00:02 437.125/150
M-CUBED/EXP-1 PRIME 24 Jan 03:54:07 03:58:02 37° 256° (WSW) 04:01:43 437.505
DANDE 24 Jan 04:13:18 04:17:48 88° 102° (ESE) 04:23:59 436.750
ISS 24 Jan 04:20:01 04:20:20 10° 225° (SW) 04:20:40 145.825
CUSAT 1 24 Jan 04:23:54 04:29:28 35° 298° (WNW) 04:36:09 437.405
AUBIESAT-1 24 Jan 04:28:05 04:31:15 21° 260° (W) 04:34:16 437.475
MOZHAYETS 4 24 Jan 04:34:45 04:37:00 13° 273° (W) 04:39:16
Gurwin Techsat 1B 24 Jan 04:41:40 04:44:01 13° 310° (NW) 04:46:22 435.225
KKS-1 24 Jan 04:42:04 04:45:49 27° 265° (W) 04:49:36 437.445
GOMX 1 24 Jan 04:43:43 04:45:04 11° 85° (E) 04:46:25 467.674
ITAMSAT 1 24 Jan 04:44:27 04:49:16 39° 295° (WNW) 04:54:04 435.822/435.867
BRITE-PL 24 Jan 04:59:05 05:03:41 41° 96° (E) 05:07:55 437.365/2234.400
PCSat 24 Jan 05:16:21 05:18:43 13° 7° (N) 05:21:04 145.827
RS-15 24 Jan 05:18:14 05:29:58 45° 19° (NNE) 05:41:32 29.354- 29.394
Cosmos 2499 24 Jan 05:19:53 05:26:12 32° 65° (ENE) 05:32:23 435.465 / 435.565
STARS 24 Jan 05:23:59 05:27:21 21° 267° (W) 05:30:44 437.465
NOAA 15 24 Jan 05:24:41 05:27:43 15° 87° (E) 05:30:44 137.62
GONETS M04 24 Jan 05:26:34 05:34:30 35° 63° (ENE) 05:42:23
AO-7 24 Jan 05:29:49 05:37:50 52° 301° (WNW) 05:45:48 29.400- 29.500
CUBESAT XI-V 24 Jan 05:30:05 05:33:42 22° 269° (W) 05:37:20 437.345
Cubesat XI-IV 24 Jan 05:30:35 05:33:55 17° 88° (E) 05:37:15 437.490
HORYU 2 24 Jan 05:37:05 05:41:19 40° 99° (E) 05:45:31 437.375
Cosmos 2491 24 Jan 05:37:11 05:39:53 12° 321° (NW) 05:42:35 435.465 / 435.565
STRAND 1 24 Jan 05:40:43 05:45:03 29° 62° (ENE) 05:49:25 437.568
O/OREOS (USA 219) 24 Jan 05:46:03 05:50:19 47° 110° (ESE) 05:54:38 437.305
LilacSat-2 24 Jan 05:46:26 05:49:23 20° 92° (E) 05:52:19 437.200
DANDE 24 Jan 05:58:26 06:01:51 18° 309° (NW) 06:05:52 436.750
NOAA 18 24 Jan 06:08:50 06:12:42 19° 90° (E) 06:16:33 137.9125
GOMX 1 24 Jan 06:19:29 06:23:56 84° 287° (WNW) 06:28:08 467.674
CUTE-I 24 Jan 06:24:44 06:29:53 45° 99° (E) 06:35:00 437.470
HO-68 24 Jan 06:30:52 06:34:52 15° 84° (E) 06:38:51 435.675
DOVE 4 24 Jan 06:36:47 06:40:56 59° 101° (E) 06:45:01 437.250
CANX-2 24 Jan 06:37:09 06:38:11 11° 85° (E) 06:39:12 2200.000
BRITE-PL 24 Jan 06:37:52 06:42:01 28° 297° (WNW) 06:45:52 437.365/2234.400
SO-50 24 Jan 06:47:08 06:51:08 28° 117° (ESE) 06:55:07 436.795
PCSat 24 Jan 06:59:46 07:04:10 24° 32° (NNE) 07:08:31 145.827
NOAA 15 24 Jan 07:02:53 07:08:15 88° 286° (WNW) 07:13:33 137.62
Cubesat XI-IV 24 Jan 07:09:18 07:14:40 83° 287° (WNW) 07:20:02 437.490
Cosmos 2499 24 Jan 07:12:48 07:19:46 57° 268° (W) 07:26:38 435.465 / 435.565
PRISM 24 Jan 07:13:06 07:14:58 13° 56° (ENE) 07:16:50 437.425
HORYU 2 24 Jan 07:13:57 07:17:42 27° 297° (WNW) 07:21:26 437.375
STRAND 1 24 Jan 07:19:08 07:24:02 47° 261° (W) 07:28:59 437.568
LilacSat-2 24 Jan 07:20:11 07:23:50 39° 290° (WNW) 07:27:28 437.200
GONETS M04 24 Jan 07:23:16 07:32:00 67° 267° (W) 07:40:45
AO-7 24 Jan 07:23:47 07:28:48 18° 325° (NW) 07:33:48 29.400- 29.500
O/OREOS (USA 219) 24 Jan 07:26:11 07:29:57 26° 310° (NW) 07:33:45 437.305
RS-15 24 Jan 07:31:53 07:44:23 84° 49° (NE) 07:56:28 29.354- 29.394
CINEMA 3 24 Jan 07:34:00 07:38:10 56° 101° (E) 07:42:25 145.822/145.860
CUTE 1.7 + AOD 2 24 Jan 07:40:19 07:44:22 38° 97° (E) 07:48:23 437.475
NOAA 18 24 Jan 07:48:29 07:53:57 73° 289° (WNW) 07:59:23 137.9125
ANTELSAT 24 Jan 07:49:53 07:50:00 10° 53° (NE) 07:50:06 437.575/2403.000
GOMX 1 24 Jan 07:59:32 08:01:15 12° 306° (NW) 08:02:57 467.674
CUBEBUG 2 24 Jan 07:59:48 08:03:36 29° 95° (E) 08:07:30 437.445
FUNcube-1 24 Jan 08:03:37 08:05:33 13° 87° (E) 08:07:29 145.935
CUTE-I 24 Jan 08:05:06 08:09:47 32° 298° (WNW) 08:14:28 437.470
COMPASS 1 24 Jan 08:09:24 08:13:19 35° 96° (E) 08:17:10 437.405
CANX-2 24 Jan 08:10:21 08:14:42 88° 105° (ESE) 08:19:00 2200.000
SEEDS 24 Jan 08:12:15 08:16:28 56° 100° (E) 08:20:39 437.485
DOVE 4 24 Jan 08:15:30 08:18:14 17° 300° (WNW) 08:20:56 437.250
AAUSAT CUBESAT 2 24 Jan 08:16:14 08:20:02 32° 96° (E) 08:23:48 437.432
HO-68 24 Jan 08:16:40 08:23:53 73° 105° (ESE) 08:31:02 435.675
UWE-3 24 Jan 08:18:59 08:22:51 29° 95° (E) 08:26:47 435.000/436.395/437.385
SO-50 24 Jan 08:26:49 08:31:24 52° 316° (NW) 08:35:57 436.795
ZACube-1 24 Jan 08:28:02 08:31:35 23° 93° (E) 08:35:10 437.345
JAS-2 24 Jan 08:30:06 08:33:35 16° 48° (NE) 08:37:17 435.910
PCSat 24 Jan 08:42:51 08:48:20 86° 54° (NE) 08:53:47 145.827
NOAA 15 24 Jan 08:43:55 08:47:18 17° 306° (NW) 08:50:42 137.62
PRISM 24 Jan 08:45:27 08:49:38 89° 255° (WSW) 08:53:50 437.425
Cubesat XI-IV 24 Jan 08:50:46 08:53:58 16° 307° (NW) 08:57:12 437.490
UNISAT 6 24 Jan 08:53:41 08:57:35 37° 68° (ENE) 09:01:33 437.425
Oscar 11 24 Jan 08:56:00 09:00:01 35° 96° (E) 09:04:02 145.826/435.025
DELFI C3 24 Jan 08:56:14 08:57:55 12° 88° (E) 08:59:36 145.870
TIGRISAT 24 Jan 09:05:29 09:09:31 44° 69° (ENE) 09:13:36 435.000
Cosmos 2499 24 Jan 09:10:31 09:11:10 10° 290° (WNW) 09:11:48 435.465 / 435.565
CINEMA 3 24 Jan 09:12:04 09:14:59 18° 298° (WNW) 09:17:55 145.822/145.860
CUTE 1.7 + AOD 2 24 Jan 09:16:28 09:20:03 26° 296° (WNW) 09:23:37 437.475
ANTELSAT 24 Jan 09:21:39 09:25:52 68° 73° (ENE) 09:30:09 437.575/2403.000
GONETS M04 24 Jan 09:22:20 09:27:04 16° 289° (WNW) 09:31:49
QB50P1 24 Jan 09:29:46 09:31:12 12° 56° (NE) 09:32:39 145.935-145.965
NOAA 18 24 Jan 09:30:42 09:33:44 15° 309° (NW) 09:36:45 137.9125
POLYITAN 1 24 Jan 09:34:48 09:36:44 13° 57° (ENE) 09:38:41 437.675
QB50P2 24 Jan 09:35:54 09:38:07 14° 58° (ENE) 09:40:20 145.880/145.840
HUMSAT D 24 Jan 09:36:08 09:39:19 20° 91° (E) 09:42:31 437.325/437.525
CUBEBUG 2 24 Jan 09:36:18 09:40:17 36° 292° (WNW) 09:44:22 437.445
FUNcube-1 24 Jan 09:37:55 09:42:21 84° 286° (WNW) 09:46:51 145.935
RS-15 24 Jan 09:45:11 09:55:43 36° 255° (WSW) 10:05:57 29.354- 29.394
COMPASS 1 24 Jan 09:45:11 09:48:44 27° 295° (WNW) 09:52:17 437.405
CANX-2 24 Jan 09:47:50 09:49:55 13° 303° (WNW) 09:51:59 2200.000
SEEDS 24 Jan 09:48:47 09:51:47 19° 299° (WNW) 09:54:47 437.485
AAUSAT CUBESAT 2 24 Jan 09:51:49 09:55:27 29° 294° (WNW) 09:59:03 437.432
UWE-3 24 Jan 09:55:21 09:59:20 35° 293° (WNW) 10:03:26 435.000/436.395/437.385
POPSAT HIP 1 24 Jan 09:55:21 09:58:19 19° 61° (ENE) 10:01:17 437.405
DUCHIFAT 1 24 Jan 10:00:33 10:03:27 19° 61° (ENE) 10:06:23 145.980
ZACube-1 24 Jan 10:03:52 10:08:04 45° 290° (WNW) 10:12:20 437.345
HO-68 24 Jan 10:05:03 10:11:05 30° 306° (NW) 10:17:05 435.675
NANOSAT C BR1 24 Jan 10:07:59 10:11:18 23° 63° (ENE) 10:14:39 145.865
SO-50 24 Jan 10:09:45 10:12:53 17° 339° (NNW) 10:15:59 436.795
JAS-2 24 Jan 10:11:57 10:17:29 74° 71° (ENE) 10:23:45 435.910
BUGSAT 1 24 Jan 10:18:48 10:20:06 11° 56° (NE) 10:21:24 437.445
PRISM 24 Jan 10:24:50 10:25:34 10° 273° (W) 10:26:17 437.425
PCSat 24 Jan 10:27:29 10:31:02 18° 254° (WSW) 10:34:35 145.827
DELFI C3 24 Jan 10:29:14 10:33:14 72° 285° (WNW) 10:37:11 145.870
UNISAT 6 24 Jan 10:30:52 10:34:26 26° 266° (W) 10:38:02 437.425
Oscar 11 24 Jan 10:32:18 10:36:05 29° 295° (WNW) 10:39:51 145.826/435.025
TIGRISAT 24 Jan 10:43:11 10:46:27 21° 268° (W) 10:49:44 435.000
ANTELSAT 24 Jan 11:00:46 11:03:05 14° 272° (W) 11:05:27 437.575/2403.000
QB50P1 24 Jan 11:02:05 11:06:17 82° 73° (ENE) 11:10:30 145.935-145.965
AO-7 24 Jan 11:05:44 11:07:00 10° 20° (NNE) 11:08:17 29.400- 29.500
POLYITAN 1 24 Jan 11:07:43 11:11:55 87° 261° (W) 11:16:08 437.675
QB50P2 24 Jan 11:09:09 11:13:21 80° 258° (WSW) 11:17:35 145.880/145.840
HUMSAT D 24 Jan 11:11:02 11:15:12 49° 289° (WNW) 11:19:21 437.325/437.525
Gurwin Techsat 1B 24 Jan 11:11:10 11:11:57 10° 47° (NE) 11:12:45 435.225
FUNcube-1 24 Jan 11:15:58 11:17:55 13° 303° (WNW) 11:19:54 145.935
CUSAT 1 24 Jan 11:28:37 11:33:40 18° 48° (NE) 11:38:33 437.405
SPROUT 24 Jan 11:28:53 11:30:25 12° 87° (E) 11:31:56 437.525
POPSAT HIP 1 24 Jan 11:29:38 11:33:44 54° 260° (W) 11:37:53 437.405
VELOX 1 24 Jan 11:32:51 11:35:43 17° 90° (E) 11:38:36 145.980
DUCHIFAT 1 24 Jan 11:34:42 11:38:47 54° 259° (W) 11:42:54 145.980
Cosmos 2491 24 Jan 11:39:01 11:46:54 35° 63° (ENE) 11:54:45 435.465 / 435.565
ESTCUBE 1 24 Jan 11:40:08 11:44:33 50° 100° (E) 11:48:57 437.505/2401.250
BY70-1 24 Jan 11:42:22 11:45:35 73° 287° (WNW) 11:48:35 436.1900
NANOSAT C BR1 24 Jan 11:42:51 11:46:49 41° 262° (W) 11:50:49 145.865
DX 1 24 Jan 11:50:45 11:52:37 12° 88° (E) 11:54:29 434.975-435.025
BUGSAT 1 24 Jan 11:50:46 11:54:50 86° 72° (ENE) 11:58:52 437.445
SO-50 24 Jan 11:53:08 11:55:09 13° 4° (N) 11:57:10 436.795
YUBILEINY 24 Jan 11:54:57 11:58:32 13° 68° (ENE) 12:02:06 435.215
Oscar 19 24 Jan 11:55:41 12:00:21 35° 64° (ENE) 12:05:02 437.125/150
JAS-2 24 Jan 11:59:22 12:03:26 20° 274° (W) 12:07:49 435.910
CUBEBUG 1 24 Jan 12:06:38 12:10:54 55° 101° (E) 12:15:07 437.445
AO-85 24 Jan 12:30:48 12:34:19 22° 116° (ESE) 12:37:41 145.980
50 SAT 24 Jan 12:31:09 12:34:37 45° 100° (E) 12:38:01 437.505
AISAT 24 Jan 12:35:03 12:39:27 69° 103° (ESE) 12:43:48 437.250
QB50P1 24 Jan 12:41:07 12:42:37 12° 273° (W) 12:44:09 145.935-145.965
Gurwin Techsat 1B 24 Jan 12:45:37 12:50:45 50° 67° (ENE) 12:55:53 435.225
POLYITAN 1 24 Jan 12:48:07 12:48:23 10° 274° (W) 12:48:39 437.675
AO-7 24 Jan 12:50:18 12:56:57 27° 46° (NE) 13:03:36 29.400- 29.500
ITAMSAT 1 24 Jan 12:50:36 12:53:37 16° 53° (NE) 12:56:38 435.822/435.867
DANDE 24 Jan 13:02:20 13:08:52 28° 60° (ENE) 13:15:47 436.750
SPROUT 24 Jan 13:02:39 13:06:56 84° 284° (WNW) 13:11:12 437.525
VELOX 1 24 Jan 13:08:15 13:12:36 61° 289° (WNW) 13:16:55 145.980
CUSAT 1 24 Jan 13:09:30 13:17:26 59° 71° (ENE) 13:24:41 437.405
UKube-1 24 Jan 13:14:56 13:19:13 61° 102° (ESE) 13:23:28 .
ESTCUBE 1 24 Jan 13:17:30 13:21:05 23° 298° (WNW) 13:24:38 437.505/2401.250
DX 1 24 Jan 13:25:02 13:29:24 81° 285° (WNW) 13:33:43 434.975-435.025
AIST 1 24 Jan 13:25:05 13:29:17 48° 94° (E) 13:33:28
BUGSAT 1 24 Jan 13:30:10 13:30:47 10° 273° (W) 13:31:24 437.445
SO-50 24 Jan 13:33:41 13:37:16 22° 28° (NNE) 13:40:49 436.795
Oscar 19 24 Jan 13:34:45 13:39:37 40° 263° (W) 13:44:31 437.125/150
Cosmos 2491 24 Jan 13:35:44 13:44:25 67° 267° (W) 13:53:06 435.465 / 435.565
CUBEBUG 1 24 Jan 13:43:41 13:46:50 20° 299° (WNW) 13:49:57 437.445
YUBILEINY 24 Jan 13:44:44 13:53:17 58° 91° (E) 14:01:54 435.215
BEESAT 24 Jan 13:54:56 13:57:23 14° 87° (E) 13:59:51 436.000
SWISSCUBE 24 Jan 13:56:41 13:59:38 16° 89° (E) 14:02:35 437.505
Cosmos 2504 24 Jan 14:01:38 14:09:26 43° 88° (E) 14:16:46 435.465 / 435.565
50 SAT 24 Jan 14:05:12 14:07:30 16° 298° (WNW) 14:09:46 437.505
AO-85 24 Jan 14:09:56 14:14:28 61° 314° (NW) 14:18:40 145.980
O/OREOS (USA 219) 24 Jan 14:12:29 14:16:27 29° 51° (NE) 14:20:24 437.305
AISAT 24 Jan 14:12:36 14:15:26 17° 302° (WNW) 14:18:14 437.250
TISAT 1 24 Jan 14:14:13 14:18:25 85° 101° (E) 14:22:37 437.305
Gurwin Techsat 1B 24 Jan 14:26:28 14:30:56 27° 267° (W) 14:35:28 435.225
ITAMSAT 1 24 Jan 14:27:09 14:32:20 82° 71° (ENE) 14:37:33 435.822/435.867
BRITE-PL 24 Jan 14:37:26 14:40:39 16° 55° (NE) 14:43:49 437.365/2234.400
AO-7 24 Jan 14:40:20 14:48:43 86° 68° (ENE) 14:57:10 29.400- 29.500
SPROUT 24 Jan 14:40:30 14:42:10 12° 304° (NW) 14:43:51 437.525
DANDE 24 Jan 14:44:32 14:52:29 88° 258° (WSW) 15:00:52 436.750
MOZHAYETS 4 24 Jan 14:46:30 14:49:07 15° 88° (E) 14:51:43
UKube-1 24 Jan 14:51:53 14:54:51 18° 300° (WNW) 14:57:48 .
CUSAT 1 24 Jan 14:51:54 14:59:04 38° 273° (W) 15:05:39 437.405
ITUPSAT 1 24 Jan 14:59:33 15:04:16 50° 100° (E) 15:08:56 437.325
DX 1 24 Jan 15:03:08 15:04:53 12° 305° (NW) 15:06:37 434.975-435.025
AIST 1 24 Jan 15:03:53 15:07:09 20° 293° (WNW) 15:10:25
HORYU 2 24 Jan 15:07:01 15:07:38 10° 52° (NE) 15:08:14 437.375
BEESAT 2 24 Jan 15:12:24 15:14:28 14° 111° (ESE) 15:16:33 435.950
SO-50 24 Jan 15:13:49 15:18:23 86° 46° (NE) 15:22:52 436.795
BEESAT 24 Jan 15:31:00 15:35:50 85° 283° (WNW) 15:40:37 436.000
SWISSCUBE 24 Jan 15:33:10 15:37:59 74° 287° (WNW) 15:42:46 437.505
Cosmos 2491 24 Jan 15:34:51 15:39:29 16° 290° (WNW) 15:44:09 435.465 / 435.565
YUBILEINY 24 Jan 15:42:20 15:50:29 40° 294° (WNW) 15:58:43 435.215
TISAT 1 24 Jan 15:51:27 15:53:27 13° 303° (WNW) 15:55:28 437.305
O/OREOS (USA 219) 24 Jan 15:51:44 15:55:59 41° 251° (WSW) 16:00:13 437.305
BEESAT 3 24 Jan 15:52:36 15:56:28 68° 126° (SE) 16:00:26 437.485
AO-85 24 Jan 15:52:48 15:55:39 17° 334° (NNW) 15:58:22 145.980
GOMX 1 24 Jan 15:54:05 15:58:19 26° 63° (ENE) 16:02:22 467.674
Cosmos 2504 24 Jan 15:54:33 16:02:44 51° 288° (WNW) 16:10:25 435.465 / 435.565
NOAA 18 24 Jan 16:02:51 16:04:44 12° 47° (NE) 16:06:39 137.9125
AUBIESAT-1 24 Jan 16:02:53 16:03:52 11° 95° (E) 16:04:52 437.475
ITAMSAT 1 24 Jan 16:09:21 16:12:27 16° 272° (W) 16:15:36 435.822/435.867
DOVE 4 24 Jan 16:10:47 16:13:29 15° 59° (ENE) 16:16:07 437.250
BRITE-PL 24 Jan 16:12:40 16:18:20 76° 73° (ENE) 16:23:48 437.365/2234.400
CUTE-I 24 Jan 16:13:00 16:16:49 21° 56° (ENE) 16:20:39 437.470
MOZHAYETS 4 24 Jan 16:22:10 16:26:50 77° 286° (WNW) 16:31:29
KKS-1 24 Jan 16:27:39 16:31:52 41° 99° (E) 16:36:03 437.445
DANDE 24 Jan 16:28:21 16:34:24 24° 278° (W) 16:40:40 436.750
LilacSat-2 24 Jan 16:32:46 16:35:32 20° 63° (ENE) 16:38:20 437.200
AO-7 24 Jan 16:35:53 16:42:29 25° 269° (W) 16:49:09 29.400- 29.500
ITUPSAT 1 24 Jan 16:37:54 16:41:50 25° 299° (WNW) 16:45:44 437.325
HORYU 2 24 Jan 16:38:58 16:43:19 64° 72° (ENE) 16:47:43 437.375
BEESAT 2 24 Jan 16:47:43 16:51:41 79° 312° (NW) 16:55:44 435.950
NOAA 15 24 Jan 16:48:15 16:53:06 38° 64° (ENE) 16:57:59 137.62
SO-50 24 Jan 16:55:39 16:58:12 15° 249° (WSW) 17:00:44 436.795
Cubesat XI-IV 24 Jan 16:56:18 17:01:15 41° 65° (ENE) 17:06:13 437.490
M-CUBED/EXP-1 PRIME 24 Jan 17:02:51 17:06:12 72° 108° (ESE) 17:09:26 437.505
HO-68 24 Jan 17:04:28 17:09:44 23° 49° (NE) 17:14:59 435.675
CINEMA 3 24 Jan 17:05:59 17:07:32 12° 57° (ENE) 17:09:04 145.822/145.860
STARS 24 Jan 17:07:30 17:11:45 49° 100° (E) 17:16:00 437.465
BEESAT 24 Jan 17:10:18 17:12:53 15° 305° (NW) 17:15:29 436.000
SWISSCUBE 24 Jan 17:12:47 17:14:58 13° 307° (NW) 17:17:08 437.505
CUBESAT XI-V 24 Jan 17:20:37 17:25:21 73° 103° (ESE) 17:29:59 437.345
GOMX 1 24 Jan 17:31:00 17:36:09 53° 260° (W) 17:41:02 467.674
BEESAT 3 24 Jan 17:31:19 17:34:29 22° 327° (NNW) 17:37:41 437.485
CANX-2 24 Jan 17:33:28 17:35:53 15° 58° (ENE) 17:38:18 2200.000
AUBIESAT-1 24 Jan 17:35:25 17:38:43 56° 294° (WNW) 17:41:57 437.475
NOAA 18 24 Jan 17:38:57 17:44:18 55° 67° (ENE) 17:49:38 137.9125
DOVE 4 24 Jan 17:45:50 17:50:40 84° 255° (WSW) 17:55:14 437.250
YUBILEINY 24 Jan 17:48:27 17:50:35 11° 322° (NW) 17:52:45 435.215
CUTE-I 24 Jan 17:51:01 17:56:19 76° 255° (WSW) 18:01:40 437.470
AIST 2 24 Jan 17:52:23 17:54:39 14° 111° (ESE) 17:56:56 435.215
BRITE-PL 24 Jan 17:53:15 17:57:18 20° 271° (W) 18:01:17 437.365/2234.400
Cosmos 2504 24 Jan 17:54:48 17:58:18 13° 313° (NW) 18:01:43 435.465 / 435.565
MOZHAYETS 4 24 Jan 18:01:12 18:03:14 13° 305° (NW) 18:05:15
Cosmos 2499 24 Jan 18:02:59 18:09:01 24° 80° (E) 18:14:44 435.465 / 435.565
KKS-1 24 Jan 18:04:35 18:08:15 26° 297° (WNW) 18:11:55 437.445
LilacSat-2 24 Jan 18:05:58 18:09:34 42° 262° (W) 18:13:13 437.200
HORYU 2 24 Jan 18:17:33 18:20:18 16° 270° (W) 18:23:05 437.375
BEESAT 2 24 Jan 18:27:17 18:30:07 18° 332° (NNW) 18:32:58 435.950
NOAA 15 24 Jan 18:27:59 18:32:53 37° 263° (W) 18:37:50 137.62
GONETS M04 24 Jan 18:34:18 18:41:39 32° 81° (E) 18:49:04
Cubesat XI-IV 24 Jan 18:36:36 18:41:24 34° 264° (W) 18:46:14 437.490
CUTE 1.7 + AOD 2 24 Jan 18:36:47 18:40:53 47° 70° (ENE) 18:45:01 437.475
M-CUBED/EXP-1 PRIME 24 Jan 18:39:09 18:40:12 11° 308° (NW) 18:41:13 437.505
CINEMA 3 24 Jan 18:39:45 18:44:03 86° 80° (E) 18:48:15 145.822/145.860
STARS 24 Jan 18:44:27 18:47:50 22° 299° (WNW) 18:51:12 437.465
HO-68 24 Jan 18:49:17 18:56:29 81° 70° (ENE) 19:03:44 435.675
CUBESAT XI-V 24 Jan 18:59:04 19:02:11 18° 302° (WNW) 19:05:17 437.345
CUBEBUG 2 24 Jan 19:02:08 19:05:58 37° 68° (ENE) 19:09:50 437.445
FUNcube-1 24 Jan 19:03:15 19:05:53 17° 59° (ENE) 19:08:32 145.935
COMPASS 1 24 Jan 19:03:53 19:07:51 41° 69° (ENE) 19:11:51 437.405
CANX-2 24 Jan 19:06:53 19:11:10 77° 257° (WSW) 19:15:29 2200.000
SEEDS 24 Jan 19:07:40 19:11:52 66° 73° (ENE) 19:16:07 437.485
AAUSAT CUBESAT 2 24 Jan 19:10:13 19:14:05 38° 68° (ENE) 19:18:00 437.432
AO-85 24 Jan 19:17:22 19:19:52 16° 24° (NNE) 19:22:21 145.980
UWE-3 24 Jan 19:20:11 19:24:00 37° 68° (ENE) 19:27:53 435.000/436.395/437.385
NOAA 18 24 Jan 19:20:42 19:25:17 26° 267° (W) 19:29:51 137.9125
STRAND 1 24 Jan 19:24:52 19:29:46 42° 98° (E) 19:34:39 437.568
DOVE 4 24 Jan 19:27:29 19:28:59 11° 273° (W) 19:30:29 437.250
ZACube-1 24 Jan 19:28:04 19:31:39 29° 65° (ENE) 19:35:18 437.345
AIST 2 24 Jan 19:28:23 19:32:32 81° 310° (NW) 19:36:46 435.215
CUTE-I 24 Jan 19:35:18 19:37:17 12° 275° (W) 19:39:18 437.470
DELFI C3 24 Jan 19:45:55 19:48:09 15° 60° (ENE) 19:50:25 145.870
Cosmos 2499 24 Jan 19:53:08 20:01:22 83° 280° (W) 20:08:59 435.465 / 435.565
Oscar 11 24 Jan 19:54:38 19:58:45 45° 70° (ENE) 20:02:55 145.826/435.025
CUTE 1.7 + AOD 2 24 Jan 20:13:44 20:16:58 21° 269° (W) 20:20:14 437.475
CINEMA 3 24 Jan 20:20:34 20:21:47 11° 273° (W) 20:23:01 145.822/145.860
GONETS M04 24 Jan 20:29:08 20:37:49 69° 284° (WNW) 20:46:38
HUMSAT D 24 Jan 20:31:26 20:34:46 24° 64° (ENE) 20:38:08 437.325/437.525
FUNcube-1 24 Jan 20:37:33 20:41:40 64° 259° (W) 20:45:51 145.935
CUBEBUG 2 24 Jan 20:39:22 20:42:44 24° 267° (W) 20:46:08 437.445
HO-68 24 Jan 20:39:28 20:45:01 24° 270° (W) 20:50:37 435.675
COMPASS 1 24 Jan 20:40:14 20:43:34 23° 268° (W) 20:46:56 437.405
SEEDS 24 Jan 20:45:35 20:48:01 15° 272° (W) 20:50:28 437.485
AAUSAT CUBESAT 2 24 Jan 20:46:13 20:49:40 24° 267° (W) 20:53:09 437.432
BEESAT 3 24 Jan 20:51:50 20:52:57 11° 15° (NNE) 20:54:03 437.485
AO-85 24 Jan 20:57:08 21:01:05 63° 47° (NE) 21:04:57 145.980
UWE-3 24 Jan 20:57:14 21:00:36 24° 267° (W) 21:04:02 435.000/436.395/437.385
ISS 24 Jan 21:00:12 21:02:53 24° 144° (SE) 21:05:36 145.825
ZACube-1 24 Jan 21:04:10 21:07:54 32° 265° (W) 21:11:42 437.345
STRAND 1 24 Jan 21:04:18 21:08:50 32° 297° (WNW) 21:13:21 437.568
AIST 2 24 Jan 21:08:36 21:11:40 19° 332° (NNW) 21:14:46 435.215
ESTCUBE 1 24 Jan 21:10:08 21:11:58 12° 54° (NE) 21:13:48 437.505/2401.250
ANTELSAT 24 Jan 21:10:56 21:12:07 11° 86° (E) 21:13:18 437.575/2403.000
DELFI C3 24 Jan 21:18:28 21:22:28 70° 258° (WSW) 21:26:30 145.870
JAS-2 24 Jan 21:18:59 21:20:22 11° 79° (ENE) 21:21:47 435.910
